Location: Barcelona
(41.3830°N, 2.1830°E)
Time: 05:16:20
(UTC+01:00)

ISS - Pass Details

Date: 09 November 2019
Orbit: 412 x 421 km, 51.6° (Epoch: 12 November)

Event Time Altitude Azimuth Distance (km) Brightness Sun altitude
Exits shadow 05:47:03 27° 2° (N) 843 -2.3 -19.9°
Maximum altitude 05:47:41 29° 24° (NNE) 797 -2.2 -19.8°
Drops below altitude 10° 05:50:42 10° 87° (E) 1,499 0.3 -19.2°
Sets 05:52:57 0° 99° (E) 2,359 1.8 -18.8°
